Back to catalog

DELTA 1 DEB

AliveSSO
NORAD 7084·DEBRIS·🇺🇸 United States

Launched Nov 6, 1973 from Vandenberg Space Force Base

Loading…

Next Passes (next 24 hours)

TLE

FreshSource: Space-Track

Epoch: Sep 14, 2026, 07:33 UTC

1 07084U 73086CC  26257.31475530 -.00000020  00000-0  19483-3 0  9994
2 07084 101.8647 197.2980 0152981 185.6082 330.0173 12.25199025363195

Track DELTA 1 DEB in real time with AllMySat

Download on the App Store